Home   Weather   Rothesay   Past weeks

Flag for Canada Past Weather in Rothesay, New Brunswick, Canada — Yesterday and Last 2 Weeks

Now
27 °F

Overcast.


Feels Like: 18 °F
Forecast: 20 / 29 °F
Wind: 8 mph from Northeast

Location: Saint John

Current Time: Jan 23, 2017 at 2:45:13 am

Latest Report: Jan 23, 2017 at 2:00 am


Visibility: 12 mi

Pressure: 30.14 "Hg

Humidity: 80%

Dew Point: 21 °F

Location of RothesayLocation

Past Weather in Rothesay — Graph

°F

Rothesay Temperature Yesterday

Maximum temperature yesterday: 32 °F (at 10:00 am)
Minimum temperature yesterday: 25 °F (at 11:00 pm)
Average temperature yesterday: 30 °F

High & Low Weather Summary for the Past Weeks

 TemperatureHumidityPressure
High46 °F (Jan 11, 2:33 pm)100% (Jan 10, 5:14 am)30.72 "Hg (Jan 10, 5:14 am)
Low-13 °F (Jan 10, 1:42 am)29% (Jan 13, 2:00 pm)29.68 "Hg (Jan 21, 4:00 pm)
Average24 °F79%30.16 "Hg
* Reported Jan 8 1:00 am — Jan 23 1:00 am, Rothesay, Weather by CustomWeather, © 2017

Note: Actual official high and low records may vary slightly from our data, if they occured in-between our weather recording intervals... More about our weather records

Advertising

Rothesay Weather History for the Previous 24 Hours

Scroll right to see more
 ConditionsComfort  
Time TempWeatherWind HumidityBarometerVisibility
1:00 am
Mon, Jan 23
27 °FOvercast.7 mph86%30.09 "Hg12 mi
12:00 am25 °FOvercast.12 mph93%30.07 "Hg15 mi
11:00 pm
Sun, Jan 22
25 °FOvercast.12 mph86%30.08 "Hg15 mi
10:00 pm27 °FOvercast.13 mph80%30.07 "Hg15 mi
9:00 pm27 °FOvercast.12 mph74%30.06 "Hg15 mi
8:00 pm28 °FOvercast.13 mph74%30.05 "Hg15 mi
7:00 pm28 °FOvercast.12 mph80%30.03 "Hg15 mi
6:00 pm28 °FOvercast.13 mph86%30.01 "Hg15 mi
5:00 pm30 °FOvercast.8 mph75%29.98 "Hg15 mi
4:00 pm30 °FOvercast.8 mph75%29.96 "Hg15 mi
3:00 pm32 °FOvercast.6 mph69%29.91 "Hg15 mi
2:00 pm32 °FOvercast.13 mph69%29.88 "Hg15 mi
1:00 pm32 °FMore clouds than sun.12 mph69%29.86 "Hg15 mi
12:00 pm32 °FMore clouds than sun.13 mph75%29.87 "Hg15 mi
11:00 am32 °FMore clouds than sun.7 mph80%29.87 "Hg15 mi
10:00 am32 °FMostly cloudy.8 mph80%29.84 "Hg15 mi
9:00 am30 °FMostly cloudy.7 mph93%29.82 "Hg15 mi
8:00 am30 °FMostly cloudy.6 mph86%29.80 "Hg15 mi
7:00 am30 °FOvercast.7 mph93%29.77 "Hg10 mi
6:00 am28 °FOvercast.5 mph100%29.77 "Hg10 mi
5:00 am28 °FOvercast.3 mph100%29.75 "Hg10 mi
4:00 am28 °FMostly cloudy.3 mph100%29.73 "Hg12 mi
3:00 am28 °FMostly cloudy.3 mph93%29.73 "Hg12 mi
2:00 am30 °FMostly cloudy.6 mph93%29.70 "Hg15 mi
Weather by CustomWeather, © 2017

See weather overviewHow to use our weather pages